Hourly Data Report for November 28, 2021

OTTAWA INTL A
ONTARIO
Current Station Operator: NAVCAN

45°19'00.000" N
75°40'00.000" W
114.90 m
6106001
71628
YOW

Download Data

Hourly Data (November 2021)
Hourly Data Report for November 28, 2021
TIME
LST
Temp Definition
°C
Dew Point Definition
°C
Rel Hum Definition
%
Precip. Amount Definition
mm

Wind Dir Definition
10's deg

Wind Spd Definition
km/h
Visibility Definition
km
Stn Press Definition
kPa
Hmdx Definition


Wind Chill Definition


Weather Definition


00:00 -7.6 -9.3 88   29 8 24.1 99.73   -12 LegendNANA
01:00 -8.0 -9.5 90   29 11 24.1 99.72   -13 Clear
02:00 -8.5 -10.0 89   30 12 24.1 99.70   -14 LegendNANA
03:00 -9.1 -10.9 87   30 10 24.1 99.71   -14 LegendNANA
04:00 -9.8 -11.6 87   32 9 24.1 99.70   -15 Clear
05:00 -10.3 -11.1 94   26 6 24.1 99.71   -14 LegendNANA
06:00 -9.9 -11.0 92   27 4 24.1 99.72   -12 LegendNANA
07:00 -10.9 -11.9 93   23 3 24.1 99.72   -13 Mainly Clear
08:00 -10.9 -11.9 92   29 5 24.1 99.75   -14 LegendNANA
09:00 -8.9 -9.9 92   36 1 24.1 99.76   -9 LegendNANA
10:00 -7.4 -9.9 83   28 5 24.1 99.78   -10 Mostly Cloudy
11:00 -5.5 -9.8 72   36 4 24.1 99.72   -7 LegendNANA
12:00 -5.1 -10.5 66   31 4 24.1 99.68   -7 LegendNANA
13:00 -3.3 -9.3 63   18 3 24.1 99.62   -5 Mostly Cloudy
14:00 -2.9 -9.8 60   8 11 24.1 99.55   -7 LegendNANA
15:00 -3.1 -9.3 62   10 9 24.1 99.59   -7 LegendNANA
16:00 -3.5 -9.8 62   7 7 24.1 99.62   -6 Mostly Cloudy
17:00 -4.0 -9.4 66   8 5 24.1 99.66   -6 LegendNANA
18:00 -3.9 -8.7 69   6 3 24.1 99.70   -5 LegendNANA
19:00 -4.1 -8.9 69   5 4 24.1 99.72   -6 Cloudy
20:00 -4.0 -8.4 72   1 4 24.1 99.76   -6 LegendNANA
21:00 -4.0 -8.8 69   2 4 24.1 99.75   -6 LegendNANA
22:00 -4.6 -7.1 83   36 2 24.1 99.77   -5 Cloudy
23:00 -4.7 -7.9 78   4 7 24.1 99.79   -8 LegendNANA

Notes on Data Quality.

Legend

  • E = Estimated
  • M = Missing
  • NA = Not Available*
  • [empty] = Indicates an unobserved value
Date modified: